Overview Statistics Trail Chart Weather Telemetry Raw packets
 

This is the latest recevied weather packets stored in our database for station/object K7DC. If no packets are shown the sender has not sent any weather packets the latest 10 day(s).

<< 72 73 74 75 76 77 78 >>
Time Temp. Humidity Pressure Rain* Wind** Luminosity Snow
1788120103 35.56° C 32% 1015.4 hPa 0 mm - 916 W/m² -
1788119783 36.11° C 31% 1015.6 hPa 0 mm - 905 W/m² -
1788119481 35.56° C 31% 1015.6 hPa 0 mm - 908 W/m² -
1788119175 35.56° C 32% 1015.6 hPa 0 mm - 904 W/m² -
1788118875 35.56° C 32% 1016 hPa 0 mm - 903 W/m² -
1788118575 35.56° C 33% 1015.7 hPa 0 mm - 895 W/m² -
1788118270 36.11° C 31% 1016.3 hPa 0 mm - 897 W/m² -
1788117966 35° C 32% 1016 hPa 0 mm - 895 W/m² -
1788117665 35.56° C 32% 1016 hPa 0 mm - 893 W/m² -
1788117360 35° C 32% 1016.3 hPa 0 mm - 889 W/m² -
1788117056 35° C 33% 1016.5 hPa 0 mm - 883 W/m² -
1788116751 35° C 33% 1016.4 hPa 0 mm - 881 W/m² -
1788116447 35° C 34% 1016.7 hPa 0 mm - 879 W/m² -
1788116145 34.44° C 34% 1016.7 hPa 0 mm - 869 W/m² -
1788115841 34.44° C 34% 1016.8 hPa 0 mm - 869 W/m² -
1788115540 35° C 33% 1017 hPa 0 mm - 867 W/m² -
1788115234 35° C 32% 1017 hPa 0 mm - 863 W/m² -
1788114929 33.89° C 34% 1016.9 hPa 0 mm - 858 W/m² -
1788114630 33.89° C 36% 1016.9 hPa 0 mm - 851 W/m² -
1788114321 33.33° C 36% 1017 hPa 0 mm - 848 W/m² -
1788114017 33.33° C 36% 1017 hPa 0 mm - 841 W/m² -
1788113713 33.33° C 37% 1017 hPa 0 mm - 833 W/m² -
1788113412 33.33° C 39% 1017.3 hPa 0 mm - 835 W/m² -
1788113112 32.78° C 38% 1017.2 hPa 0 mm - 838 W/m² -
1788112812 32.78° C 39% 1017.2 hPa 0 mm - 780 W/m² -

* Rain latest hour (hover to see other rain measurements)
** Current wind speed in m/s (hover to see current wind gust speed)